| time (UTC) | temp F | wind direction | speed MPH | gust MPH | rain 1hr in | rain 24hr in | rain mn in | humidity % | barometer mb |
| 20260509055037 | 50 | 63 | 1.0 | 6.0 | 0.00 | 0.00 | 0.00 | 75 | 1017.2 |
| 20260509054548 | 50 | 36 | 2.0 | 8.0 | 0.00 | 0.00 | 0.00 | 75 | 1017.1 |
| 20260509054038 | 50 | 44 | 2.0 | 8.0 | 0.00 | 0.00 | 0.00 | 75 | 1017.1 |
| 20260509053538 | 49 | 30 | 3.0 | 7.0 | 0.00 | 0.00 | 0.00 | 75 | 1017.0 |
| 20260509053107 | 49 | 65 | 3.0 | 7.0 | 0.00 | 0.00 | 0.00 | 76 | 1016.9 |
| 20260509052538 | 49 | 53 | 2.0 | 4.0 | 0.00 | 0.00 | 0.00 | 76 | 1017.1 |
| 20260509052038 | 49 | 29 | 1.0 | 4.0 | 0.00 | 0.00 | 0.00 | 76 | 1017.0 |
| 20260509051545 | 49 | 56 | 2.0 | 4.0 | 0.00 | 0.00 | 0.00 | 76 | 1017.0 |
| 20260509051037 | 49 | 42 | 1.0 | 4.0 | 0.00 | 0.00 | 0.00 | 76 | 1017.0 |
| 20260509050539 | 49 | 30 | 1.0 | 4.0 | 0.00 | 0.00 | 0.00 | 77 | 1016.8 |
| 20260509050048 | 49 | 43 | 2.0 | 5.0 | 0.00 | 0.00 | 0.00 | 77 | 1016.8 |
| 20260509045533 | 49 | 26 | 2.0 | 5.0 | 0.00 | 0.00 | 0.00 | 77 | 1016.8 |
| 20260509045036 | 49 | 42 | 1.0 | 4.0 | 0.00 | 0.00 | 0.00 | 76 | 1016.9 |
| 20260509044547 | 49 | 0 | 1.0 | 3.0 | 0.00 | 0.00 | 0.00 | 76 | 1017.1 |
| 20260509044033 | 49 | 51 | 0.0 | 3.0 | 0.00 | 0.00 | 0.00 | 76 | 1017.0 |
| 20260509043534 | 49 | 0 | 1.0 | 3.0 | 0.00 | 0.00 | 0.00 | 76 | 1016.9 |
| 20260509043104 | 49 | 55 | 1.0 | 4.0 | 0.00 | 0.00 | 0.00 | 75 | 1016.8 |
| 20260509042533 | 49 | 35 | 1.0 | 4.0 | 0.00 | 0.00 | 0.00 | 75 | 1016.8 |
| 20260509042036 | 49 | 20 | 1.0 | 4.0 | 0.00 | 0.00 | 0.00 | 75 | 1016.7 |
| 20260509041557 | 49 | 349 | 1.0 | 5.0 | 0.00 | 0.00 | 0.00 | 75 | 1016.9 |
| 20260509041034 | 49 | 9 | 2.0 | 5.0 | 0.00 | 0.00 | 0.00 | 75 | 1016.8 |
| 20260509040533 | 49 | 34 | 2.0 | 5.0 | 0.00 | 0.00 | 0.00 | 75 | 1016.9 |
| 20260509040101 | 49 | 38 | 1.0 | 3.0 | 0.00 | 0.00 | 0.00 | 74 | 1017.1 |
| 20260509035533 | 50 | 24 | 2.0 | 3.0 | 0.00 | 0.00 | 0.00 | 75 | 1017.2 |
| 20260509035034 | 49 | 0 | 1.0 | 4.0 | 0.00 | 0.00 | 0.00 | 75 | 1017.1 |
| 20260509034558 | 49 | 28 | 1.0 | 4.0 | 0.00 | 0.00 | 0.00 | 74 | 1017.1 |
| 20260509034033 | 50 | 0 | 1.0 | 4.0 | 0.00 | 0.00 | 0.00 | 74 | 1017.1 |
| 20260509033534 | 50 | 15 | 1.0 | 4.0 | 0.00 | 0.00 | 0.00 | 75 | 1017.1 |
| 20260509033049 | 49 | 335 | 2.0 | 4.0 | 0.00 | 0.00 | 0.00 | 75 | 1017.1 |
| 20260509032533 | 49 | 335 | 1.0 | 3.0 | 0.00 | 0.00 | 0.00 | 75 | 1017.0 |
| 20260509032036 | 49 | 335 | 1.0 | 2.0 | 0.00 | 0.00 | 0.00 | 74 | 1016.9 |
| 20260509031601 | 49 | 335 | 0.0 | 3.0 | 0.00 | 0.00 | 0.00 | 74 | 1016.8 |
| 20260509031034 | 49 | 54 | 0.0 | 3.0 | 0.00 | 0.00 | 0.00 | 74 | 1016.8 |
| 20260509030534 | 50 | 44 | 1.0 | 3.0 | 0.00 | 0.00 | 0.00 | 74 | 1016.8 |
| 20260509030049 | 50 | 0 | 1.0 | 4.0 | 0.00 | 0.00 | 0.00 | 74 | 1016.8 |
| 20260509025535 | 50 | 22 | 1.0 | 4.0 | 0.00 | 0.00 | 0.00 | 73 | 1016.8 |
| 20260509025033 | 50 | 45 | 2.0 | 6.0 | 0.00 | 0.00 | 0.00 | 73 | 1016.9 |
| 20260509024543 | 50 | 39 | 2.0 | 8.0 | 0.00 | 0.00 | 0.00 | 73 | 1016.9 |
| 20260509024036 | 50 | 19 | 2.0 | 8.0 | 0.00 | 0.00 | 0.00 | 73 | 1016.9 |
| 20260509023533 | 50 | 5 | 2.0 | 6.0 | 0.00 | 0.00 | 0.00 | 73 | 1017.0 |
| 20260509023041 | 50 | 53 | 2.0 | 6.0 | 0.00 | 0.00 | 0.00 | 73 | 1017.0 |
| 20260509022533 | 50 | 68 | 2.0 | 4.0 | 0.00 | 0.00 | 0.00 | 73 | 1017.1 |
| 20260509022035 | 50 | 42 | 1.0 | 4.0 | 0.00 | 0.00 | 0.00 | 73 | 1017.2 |
| 20260509021549 | 50 | 10 | 1.0 | 4.0 | 0.00 | 0.00 | 0.00 | 74 | 1017.1 |
| 20260509021033 | 50 | 45 | 1.0 | 6.0 | 0.00 | 0.00 | 0.00 | 74 | 1017.1 |
| 20260509020537 | 50 | 29 | 2.0 | 6.0 | 0.00 | 0.00 | 0.00 | 74 | 1017.0 |
| 20260509020053 | 51 | 57 | 1.0 | 3.0 | 0.00 | 0.00 | 0.00 | 75 | 1017.1 |
| 20260509015538 | 51 | 42 | 1.0 | 3.0 | 0.00 | 0.00 | 0.00 | 74 | 1017.1 |
| 20260509015037 | 51 | 13 | 1.0 | 3.0 | 0.00 | 0.00 | 0.00 | 74 | 1017.2 |
| 20260509014551 | 51 | 5 | 0.0 | 3.0 | 0.00 | 0.00 | 0.00 | 75 | 1017.2 |
| 20260509014038 | 51 | 5 | 1.0 | 3.0 | 0.00 | 0.00 | 0.00 | 75 | 1017.1 |
| 20260509013538 | 51 | 12 | 1.0 | 3.0 | 0.00 | 0.00 | 0.00 | 75 | 1017.1 |
| 20260509013052 | 51 | 30 | 1.0 | 3.0 | 0.00 | 0.00 | 0.00 | 75 | 1017.1 |
| 20260509012538 | 51 | 0 | 1.0 | 3.0 | 0.00 | 0.00 | 0.00 | 75 | 1017.1 |
| 20260509012038 | 51 | 26 | 1.0 | 3.0 | 0.00 | 0.00 | 0.00 | 75 | 1017.1 |
| 20260509011546 | 51 | 34 | 1.0 | 3.0 | 0.00 | 0.00 | 0.00 | 75 | 1017.1 |
| 20260509011037 | 51 | 60 | 1.0 | 3.0 | 0.00 | 0.00 | 0.00 | 75 | 1017.1 |
| 20260509010541 | 52 | 35 | 1.0 | 4.0 | 0.00 | 0.00 | 0.00 | 75 | 1017.0 |
| 20260509010054 | 52 | 25 | 2.0 | 4.0 | 0.00 | 0.00 | 0.00 | 75 | 1017.1 |
| 20260509005537 | 52 | 20 | 2.0 | 5.0 | 0.00 | 0.00 | 0.00 | 75 | 1017.1 |
| 20260509005037 | 52 | 22 | 2.0 | 5.0 | 0.00 | 0.00 | 0.00 | 74 | 1017.2 |
| 20260509004547 | 52 | 34 | 2.0 | 5.0 | 0.00 | 0.00 | 0.00 | 74 | 1017.2 |
| 20260509004037 | 52 | 32 | 2.0 | 4.0 | 0.00 | 0.00 | 0.00 | 73 | 1017.2 |
| 20260509003537 | 52 | 15 | 1.0 | 3.0 | 0.00 | 0.00 | 0.00 | 73 | 1017.2 |
| 20260509003051 | 52 | 19 | 1.0 | 3.0 | 0.00 | 0.00 | 0.00 | 73 | 1017.3 |
| 20260509002538 | 52 | 41 | 1.0 | 3.0 | 0.00 | 0.00 | 0.00 | 73 | 1017.3 |
| 20260509002038 | 52 | 23 | 1.0 | 3.0 | 0.00 | 0.00 | 0.00 | 73 | 1017.4 |
| 20260509001549 | 52 | 35 | 1.0 | 3.0 | 0.00 | 0.00 | 0.00 | 73 | 1017.3 |
| 20260509001038 | 52 | 35 | 1.0 | 4.0 | 0.00 | 0.00 | 0.00 | 73 | 1017.4 |
| 20260509000537 | 53 | 35 | 1.0 | 4.0 | 0.00 | 0.00 | 0.00 | 73 | 1017.4 |
| 20260509000050 | 53 | 0 | 2.0 | 4.0 | 0.00 | 0.00 | 0.00 | 73 | 1017.5 |
| 20260508235538 | 53 | 28 | 1.0 | 3.0 | 0.00 | 0.00 | 0.00 | 73 | 1017.3 |
| 20260508235038 | 53 | 36 | 1.0 | 3.0 | 0.00 | 0.00 | 0.00 | 73 | 1017.5 |
| 20260508234551 | 53 | 19 | 1.0 | 3.0 | 0.00 | 0.00 | 0.00 | 73 | 1017.5 |
| 20260508234037 | 53 | 13 | 1.0 | 4.0 | 0.00 | 0.00 | 0.00 | 73 | 1017.4 |
| 20260508233537 | 53 | 19 | 1.0 | 4.0 | 0.00 | 0.00 | 0.00 | 73 | 1017.4 |
| 20260508233050 | 53 | 30 | 2.0 | 4.0 | 0.00 | 0.00 | 0.00 | 72 | 1017.5 |
| 20260508232538 | 54 | 38 | 1.0 | 4.0 | 0.00 | 0.00 | 0.00 | 72 | 1017.5 |
| 20260508232037 | 54 | 26 | 1.0 | 4.0 | 0.00 | 0.00 | 0.00 | 72 | 1017.5 |
| 20260508231549 | 54 | 32 | 1.0 | 4.0 | 0.00 | 0.00 | 0.00 | 72 | 1017.5 |
| 20260508231038 | 54 | 43 | 1.0 | 4.0 | 0.00 | 0.00 | 0.00 | 72 | 1017.6 |
| 20260508230537 | 54 | 14 | 1.0 | 4.0 | 0.00 | 0.00 | 0.00 | 71 | 1017.6 |
| 20260508230058 | 54 | 344 | 2.0 | 4.0 | 0.00 | 0.00 | 0.00 | 71 | 1017.5 |
| 20260508225538 | 54 | 32 | 2.0 | 4.0 | 0.00 | 0.00 | 0.00 | 70 | 1017.5 |
| 20260508225034 | 54 | 30 | 1.0 | 4.0 | 0.00 | 0.00 | 0.00 | 70 | 1017.6 |
| 20260508224547 | 54 | 28 | 1.0 | 4.0 | 0.00 | 0.00 | 0.00 | 70 | 1017.6 |
| 20260508224034 | 55 | 41 | 2.0 | 4.0 | 0.00 | 0.00 | 0.00 | 69 | 1017.5 |
| 20260508223535 | 55 | 51 | 2.0 | 4.0 | 0.00 | 0.00 | 0.00 | 70 | 1017.5 |
| 20260508223048 | 55 | 31 | 2.0 | 4.0 | 0.00 | 0.00 | 0.00 | 69 | 1017.5 |
| 20260508222534 | 55 | 34 | 1.0 | 3.0 | 0.00 | 0.00 | 0.00 | 69 | 1017.5 |
| 20260508222034 | 55 | 17 | 1.0 | 3.0 | 0.00 | 0.00 | 0.00 | 69 | 1017.4 |
| 20260508221549 | 55 | 17 | 1.0 | 3.0 | 0.00 | 0.00 | 0.00 | 69 | 1017.4 |
| 20260508221035 | 55 | 17 | 1.0 | 3.0 | 0.00 | 0.00 | 0.00 | 68 | 1017.4 |
| 20260508220534 | 55 | 17 | 1.0 | 3.0 | 0.00 | 0.00 | 0.00 | 68 | 1017.5 |
| 20260508220055 | 55 | 11 | 1.0 | 3.0 | 0.00 | 0.00 | 0.00 | 68 | 1017.4 |
| 20260508215535 | 56 | 9 | 1.0 | 3.0 | 0.00 | 0.00 | 0.00 | 67 | 1017.3 |
| 20260508215035 | 56 | 19 | 1.0 | 4.0 | 0.00 | 0.00 | 0.00 | 67 | 1017.4 |
| 20260508214541 | 56 | 19 | 1.0 | 4.0 | 0.00 | 0.00 | 0.00 | 67 | 1017.4 |
| 20260508214036 | 56 | 39 | 1.0 | 4.0 | 0.00 | 0.00 | 0.00 | 66 | 1017.3 |
| 20260508213534 | 56 | 35 | 1.0 | 3.0 | 0.00 | 0.00 | 0.00 | 66 | 1017.4 |
| 20260508213050 | 56 | 30 | 1.0 | 3.0 | 0.00 | 0.00 | 0.00 | 66 | 1017.3 |
| 20260508212535 | 56 | 34 | 1.0 | 5.0 | 0.00 | 0.00 | 0.00 | 65 | 1017.3 |
| 20260508212035 | 57 | 36 | 1.0 | 5.0 | 0.00 | 0.00 | 0.00 | 65 | 1017.3 |
| 20260508211545 | 57 | 38 | 2.0 | 5.0 | 0.00 | 0.00 | 0.00 | 64 | 1017.2 |
| 20260508211034 | 57 | 40 | 1.0 | 4.0 | 0.00 | 0.00 | 0.00 | 64 | 1017.2 |
| 20260508210538 | 57 | 14 | 1.0 | 4.0 | 0.00 | 0.00 | 0.00 | 63 | 1017.2 |
| 20260508210053 | 57 | 26 | 1.0 | 4.0 | 0.00 | 0.00 | 0.00 | 63 | 1017.1 |
| 20260508205534 | 58 | 33 | 1.0 | 3.0 | 0.00 | 0.00 | 0.00 | 62 | 1017.1 |
| 20260508205038 | 58 | 32 | 1.0 | 3.0 | 0.00 | 0.00 | 0.00 | 62 | 1017.1 |
| 20260508204548 | 58 | 33 | 0.0 | 3.0 | 0.00 | 0.00 | 0.00 | 61 | 1017.1 |
| 20260508204035 | 58 | 28 | 0.0 | 4.0 | 0.00 | 0.00 | 0.00 | 61 | 1017.0 |
| 20260508203535 | 58 | 36 | 1.0 | 5.0 | 0.00 | 0.00 | 0.00 | 60 | 1017.0 |
| 20260508203042 | 59 | 63 | 2.0 | 6.0 | 0.00 | 0.00 | 0.00 | 60 | 1017.0 |
| 20260508202535 | 59 | 61 | 3.0 | 6.0 | 0.00 | 0.00 | 0.00 | 59 | 1016.8 |
| 20260508202035 | 59 | 55 | 2.0 | 5.0 | 0.00 | 0.00 | 0.00 | 59 | 1016.9 |
| 20260508201548 | 59 | 59 | 0.0 | 4.0 | 0.00 | 0.00 | 0.00 | 59 | 1016.9 |
| 20260508201036 | 60 | 62 | 1.0 | 6.0 | 0.00 | 0.00 | 0.00 | 58 | 1016.8 |
| 20260508200533 | 60 | 0 | 1.0 | 6.0 | 0.00 | 0.00 | 0.00 | 58 | 1016.8 |
| 20260508200054 | 60 | 32 | 2.0 | 7.0 | 0.00 | 0.00 | 0.00 | 58 | 1016.7 |
| 20260508195535 | 60 | 79 | 2.0 | 7.0 | 0.00 | 0.00 | 0.00 | 57 | 1016.6 |
| 20260508195036 | 60 | 45 | 2.0 | 7.0 | 0.00 | 0.00 | 0.00 | 56 | 1016.6 |
| 20260508194550 | 60 | 70 | 3.0 | 7.0 | 0.00 | 0.00 | 0.00 | 56 | 1016.5 |
| 20260508194038 | 61 | 109 | 2.0 | 7.0 | 0.00 | 0.00 | 0.00 | 56 | 1016.5 |
| 20260508193535 | 61 | 65 | 2.0 | 7.0 | 0.00 | 0.00 | 0.00 | 56 | 1016.4 |
| 20260508193058 | 61 | 96 | 3.0 | 7.0 | 0.00 | 0.00 | 0.00 | 57 | 1016.4 |
| 20260508192536 | 61 | 87 | 2.0 | 6.0 | 0.00 | 0.00 | 0.00 | 58 | 1016.4 |
| 20260508192037 | 61 | 115 | 1.0 | 4.0 | 0.00 | 0.00 | 0.00 | 60 | 1016.3 |
| 20260508191554 | 61 | 115 | 2.0 | 8.0 | 0.00 | 0.00 | 0.00 | 59 | 1016.4 |
| 20260508191034 | 61 | 104 | 2.0 | 8.0 | 0.00 | 0.00 | 0.00 | 59 | 1016.4 |
| 20260508190533 | 61 | 97 | 3.0 | 8.0 | 0.00 | 0.00 | 0.00 | 59 | 1016.4 |
| 20260508190050 | 61 | 97 | 3.0 | 7.0 | 0.00 | 0.00 | 0.00 | 60 | 1016.4 |
| 20260508185533 | 61 | 82 | 2.0 | 8.0 | 0.00 | 0.00 | 0.00 | 60 | 1016.3 |
| 20260508185038 | 61 | 113 | 4.0 | 8.0 | 0.00 | 0.00 | 0.00 | 60 | 1016.3 |
| 20260508184550 | 61 | 101 | 3.0 | 7.0 | 0.00 | 0.00 | 0.00 | 60 | 1016.3 |
| 20260508184037 | 61 | 160 | 3.0 | 8.0 | 0.00 | 0.00 | 0.00 | 59 | 1016.3 |
| 20260508183537 | 61 | 91 | 2.0 | 10.0 | 0.00 | 0.00 | 0.00 | 59 | 1016.2 |
| 20260508183054 | 61 | 115 | 4.0 | 10.0 | 0.00 | 0.00 | 0.00 | 59 | 1016.2 |
| 20260508182538 | 61 | 165 | 5.0 | 10.0 | 0.00 | 0.00 | 0.00 | 58 | 1016.1 |
| 20260508182038 | 61 | 125 | 3.0 | 11.0 | 0.00 | 0.00 | 0.00 | 57 | 1016.1 |
| 20260508181554 | 62 | 148 | 5.0 | 11.0 | 0.00 | 0.00 | 0.00 | 57 | 1016.0 |
| 20260508181037 | 62 | 96 | 4.0 | 10.0 | 0.00 | 0.00 | 0.00 | 56 | 1016.0 |
| 20260508180540 | 62 | 111 | 4.0 | 12.0 | 0.00 | 0.00 | 0.00 | 56 | 1016.0 |
| 20260508180053 | 62 | 75 | 5.0 | 12.0 | 0.00 | 0.00 | 0.00 | 55 | 1015.9 |
| 20260508175537 | 62 | 149 | 5.0 | 11.0 | 0.00 | 0.00 | 0.00 | 54 | 1016.0 |
| 20260508175034 | 62 | 151 | 5.0 | 13.0 | 0.00 | 0.00 | 0.00 | 54 | 1015.8 |
| 20260508174542 | 62 | 83 | 5.0 | 13.0 | 0.00 | 0.00 | 0.00 | 54 | 1015.8 |
| 20260508174033 | 62 | 105 | 7.0 | 13.0 | 0.00 | 0.00 | 0.00 | 53 | 1015.7 |
| 20260508173533 | 62 | 113 | 5.0 | 11.0 | 0.00 | 0.00 | 0.00 | 53 | 1015.7 |
| 20260508173051 | 62 | 138 | 6.0 | 14.0 | 0.00 | 0.00 | 0.00 | 53 | 1015.7 |
| 20260508172533 | 63 | 90 | 7.0 | 14.0 | 0.00 | 0.00 | 0.00 | 52 | 1015.7 |
| 20260508172036 | 63 | 146 | 5.0 | 13.0 | 0.00 | 0.00 | 0.00 | 52 | 1015.7 |
| 20260508171553 | 63 | 120 | 3.0 | 13.0 | 0.00 | 0.00 | 0.00 | 54 | 1015.7 |
| 20260508171037 | 62 | 105 | 7.0 | 13.0 | 0.00 | 0.00 | 0.00 | 53 | 1015.8 |
| 20260508170538 | 63 | 130 | 6.0 | 14.0 | 0.00 | 0.00 | 0.00 | 54 | 1015.7 |
| 20260508170054 | 63 | 107 | 5.0 | 14.0 | 0.00 | 0.00 | 0.00 | 54 | 1015.7 |
| 20260508165535 | 63 | 112 | 7.0 | 13.0 | 0.00 | 0.00 | 0.00 | 54 | 1015.7 |
| 20260508165036 | 63 | 146 | 6.0 | 15.0 | 0.00 | 0.00 | 0.00 | 55 | 1015.8 |
| 20260508164549 | 63 | 158 | 6.0 | 15.0 | 0.00 | 0.00 | 0.00 | 55 | 1015.8 |
| 20260508164036 | 63 | 110 | 6.0 | 15.0 | 0.00 | 0.00 | 0.00 | 57 | 1015.8 |
| 20260508163535 | 63 | 134 | 7.0 | 15.0 | 0.00 | 0.00 | 0.00 | 58 | 1015.7 |
| 20260508163051 | 63 | 117 | 8.0 | 15.0 | 0.00 | 0.00 | 0.00 | 57 | 1015.7 |
| 20260508162533 | 63 | 117 | 5.0 | 15.0 | 0.00 | 0.00 | 0.00 | 56 | 1015.8 |
| 20260508162036 | 63 | 153 | 4.0 | 13.0 | 0.00 | 0.00 | 0.00 | 58 | 1015.8 |
| 20260508161550 | 63 | 178 | 7.0 | 13.0 | 0.00 | 0.00 | 0.00 | 59 | 1015.8 |
| 20260508161035 | 63 | 126 | 4.0 | 14.0 | 0.00 | 0.00 | 0.00 | 60 | 1015.8 |
| 20260508160532 | 63 | 136 | 6.0 | 14.0 | 0.00 | 0.00 | 0.00 | 59 | 1015.9 |
| 20260508160056 | 63 | 131 | 7.0 | 12.0 | 0.00 | 0.00 | 0.00 | 59 | 1015.9 |
| 20260508155535 | 63 | 140 | 6.0 | 15.0 | 0.00 | 0.00 | 0.00 | 58 | 1015.8 |
| 20260508155033 | 63 | 130 | 6.0 | 15.0 | 0.00 | 0.00 | 0.00 | 60 | 1015.7 |
| 20260508154547 | 63 | 140 | 7.0 | 13.0 | 0.00 | 0.00 | 0.00 | 57 | 1015.7 |
| 20260508154035 | 63 | 130 | 5.0 | 14.0 | 0.00 | 0.00 | 0.00 | 58 | 1015.8 |
| 20260508153536 | 63 | 111 | 7.0 | 14.0 | 0.00 | 0.00 | 0.00 | 57 | 1015.8 |
| 20260508153054 | 64 | 82 | 6.0 | 14.0 | 0.00 | 0.00 | 0.00 | 58 | 1015.8 |
| 20260508152535 | 64 | 178 | 7.0 | 14.0 | 0.00 | 0.00 | 0.00 | 58 | 1015.9 |
| 20260508152035 | 65 | 138 | 7.0 | 13.0 | 0.00 | 0.00 | 0.00 | 58 | 1015.9 |
| 20260508151558 | 65 | 132 | 3.0 | 12.0 | 0.00 | 0.00 | 0.00 | 60 | 1015.8 |
| 20260508151036 | 65 | 131 | 4.0 | 9.0 | 0.00 | 0.00 | 0.00 | 60 | 1015.9 |
| 20260508150535 | 65 | 132 | 3.0 | 10.0 | 0.00 | 0.00 | 0.00 | 61 | 1015.9 |
| 20260508150050 | 65 | 144 | 5.0 | 10.0 | 0.00 | 0.00 | 0.00 | 62 | 1015.8 |
| 20260508145539 | 65 | 152 | 4.0 | 12.0 | 0.00 | 0.00 | 0.00 | 62 | 1015.9 |
| 20260508145035 | 65 | 180 | 3.0 | 12.0 | 0.00 | 0.00 | 0.00 | 64 | 1016.0 |
| 20260508144552 | 65 | 130 | 4.0 | 12.0 | 0.00 | 0.00 | 0.00 | 63 | 1016.1 |
| 20260508144035 | 65 | 181 | 4.0 | 12.0 | 0.00 | 0.00 | 0.00 | 64 | 1016.1 |
| 20260508143535 | 65 | 172 | 5.0 | 12.0 | 0.00 | 0.00 | 0.00 | 63 | 1016.0 |
| 20260508143047 | 65 | 136 | 4.0 | 12.0 | 0.00 | 0.00 | 0.00 | 63 | 1016.1 |
| 20260508142536 | 65 | 146 | 5.0 | 12.0 | 0.00 | 0.00 | 0.00 | 62 | 1016.0 |
| 20260508142037 | 65 | 213 | 4.0 | 13.0 | 0.00 | 0.00 | 0.00 | 62 | 1016.0 |
| 20260508141550 | 65 | 138 | 4.0 | 13.0 | 0.00 | 0.00 | 0.00 | 61 | 1016.0 |
| 20260508141036 | 65 | 161 | 3.0 | 10.0 | 0.00 | 0.00 | 0.00 | 60 | 1015.9 |
| 20260508140538 | 65 | 144 | 5.0 | 10.0 | 0.00 | 0.00 | 0.00 | 60 | 1015.9 |
| 20260508140057 | 65 | 154 | 5.0 | 9.0 | 0.00 | 0.00 | 0.00 | 63 | 1016.1 |
| 20260508135555 | 65 | 202 | 3.0 | 11.0 | 0.00 | 0.00 | 0.00 | 62 | 1015.9 |
| 20260508135038 | 65 | 188 | 4.0 | 11.0 | 0.00 | 0.00 | 0.00 | 61 | 1015.9 |
| 20260508134542 | 65 | 169 | 2.0 | 8.0 | 0.00 | 0.00 | 0.00 | 61 | 1016.1 |
| 20260508134037 | 65 | 150 | 3.0 | 8.0 | 0.00 | 0.00 | 0.00 | 59 | 1016.0 |
| 20260508133540 | 65 | 181 | 3.0 | 10.0 | 0.00 | 0.00 | 0.00 | 59 | 1016.0 |
| 20260508133047 | 65 | 173 | 4.0 | 10.0 | 0.00 | 0.00 | 0.00 | 60 | 1016.1 |
| 20260508132537 | 65 | 132 | 4.0 | 9.0 | 0.00 | 0.00 | 0.00 | 60 | 1016.1 |
| 20260508132037 | 65 | 136 | 4.0 | 12.0 | 0.00 | 0.00 | 0.00 | 62 | 1015.9 |
| 20260508131554 | 65 | 184 | 4.0 | 12.0 | 0.00 | 0.00 | 0.00 | 62 | 1015.9 |
| 20260508131037 | 65 | 188 | 4.0 | 12.0 | 0.00 | 0.00 | 0.00 | 62 | 1015.9 |
| 20260508130537 | 65 | 172 | 4.0 | 12.0 | 0.00 | 0.00 | 0.00 | 60 | 1015.8 |
| 20260508130106 | 65 | 90 | 3.0 | 12.0 | 0.00 | 0.00 | 0.00 | 62 | 1015.9 |
| 20260508125538 | 64 | 178 | 4.0 | 12.0 | 0.00 | 0.00 | 0.00 | 61 | 1015.7 |
| 20260508125037 | 64 | 144 | 6.0 | 12.0 | 0.00 | 0.00 | 0.00 | 59 | 1015.7 |
| 20260508124542 | 65 | 137 | 4.0 | 11.0 | 0.00 | 0.00 | 0.00 | 61 | 1015.8 |
| 20260508124037 | 65 | 120 | 5.0 | 11.0 | 0.00 | 0.00 | 0.00 | 60 | 1015.8 |
| 20260508123539 | 65 | 176 | 4.0 | 10.0 | 0.00 | 0.00 | 0.00 | 60 | 1015.8 |
| 20260508123042 | 65 | 132 | 3.0 | 14.0 | 0.00 | 0.00 | 0.00 | 62 | 1015.7 |
| 20260508122538 | 65 | 186 | 5.0 | 14.0 | 0.00 | 0.00 | 0.00 | 59 | 1015.7 |
| 20260508122037 | 65 | 193 | 4.0 | 11.0 | 0.00 | 0.00 | 0.00 | 59 | 1015.7 |
| 20260508121556 | 64 | 180 | 4.0 | 9.0 | 0.00 | 0.00 | 0.00 | 59 | 1015.7 |
| 20260508121038 | 64 | 100 | 4.0 | 10.0 | 0.00 | 0.00 | 0.00 | 59 | 1015.7 |
| 20260508120537 | 64 | 196 | 4.0 | 13.0 | 0.00 | 0.00 | 0.00 | 60 | 1015.7 |
| 20260508120047 | 64 | 184 | 6.0 | 13.0 | 0.00 | 0.00 | 0.00 | 60 | 1015.7 |
| 20260508115537 | 64 | 178 | 7.0 | 13.0 | 0.00 | 0.00 | 0.00 | 60 | 1015.8 |
| 20260508115037 | 64 | 175 | 6.0 | 15.0 | 0.00 | 0.00 | 0.00 | 60 | 1015.7 |
| 20260508114548 | 63 | 150 | 5.0 | 15.0 | 0.00 | 0.00 | 0.00 | 62 | 1015.9 |
| 20260508114039 | 63 | 108 | 5.0 | 12.0 | 0.00 | 0.00 | 0.00 | 62 | 1015.7 |
| 20260508113538 | 63 | 80 | 6.0 | 12.0 | 0.00 | 0.00 | 0.00 | 62 | 1015.7 |
| 20260508113045 | 63 | 100 | 6.0 | 12.0 | 0.00 | 0.00 | 0.00 | 61 | 1015.8 |
| 20260508112537 | 63 | 84 | 6.0 | 12.0 | 0.00 | 0.00 | 0.00 | 61 | 1015.7 |
| 20260508112037 | 64 | 140 | 5.0 | 10.0 | 0.00 | 0.00 | 0.00 | 61 | 1015.8 |
| 20260508111554 | 64 | 132 | 4.0 | 11.0 | 0.00 | 0.00 | 0.00 | 62 | 1015.7 |
| 20260508111038 | 63 | 182 | 4.0 | 12.0 | 0.00 | 0.00 | 0.00 | 63 | 1015.7 |
| 20260508110537 | 63 | 142 | 4.0 | 12.0 | 0.00 | 0.00 | 0.00 | 64 | 1015.6 |
| 20260508110056 | 63 | 92 | 6.0 | 12.0 | 0.00 | 0.00 | 0.00 | 63 | 1015.6 |
| 20260508105539 | 64 | 155 | 6.0 | 10.0 | 0.00 | 0.00 | 0.00 | 63 | 1015.6 |
| 20260508105041 | 64 | 122 | 4.0 | 9.0 | 0.00 | 0.00 | 0.00 | 63 | 1015.7 |
| 20260508104615 | 64 | 119 | 5.0 | 10.0 | 0.00 | 0.00 | 0.00 | 63 | 1015.6 |
| 20260508104037 | 63 | 148 | 4.0 | 11.0 | 0.00 | 0.00 | 0.00 | 65 | 1015.7 |
| 20260508103537 | 63 | 103 | 4.0 | 12.0 | 0.00 | 0.00 | 0.00 | 66 | 1015.7 |
| 20260508103050 | 63 | 136 | 4.0 | 12.0 | 0.00 | 0.00 | 0.00 | 65 | 1015.7 |
| 20260508102538 | 62 | 159 | 4.0 | 12.0 | 0.00 | 0.00 | 0.00 | 66 | 1015.8 |
| 20260508102038 | 62 | 117 | 5.0 | 12.0 | 0.00 | 0.00 | 0.00 | 65 | 1015.8 |
| 20260508101551 | 62 | 156 | 5.0 | 13.0 | 0.00 | 0.00 | 0.00 | 67 | 1015.9 |
| 20260508101038 | 61 | 136 | 6.0 | 13.0 | 0.00 | 0.00 | 0.00 | 66 | 1015.8 |
| 20260508100537 | 61 | 105 | 6.0 | 13.0 | 0.00 | 0.00 | 0.00 | 66 | 1015.8 |
| 20260508100048 | 61 | 123 | 6.0 | 13.0 | 0.00 | 0.00 | 0.00 | 68 | 1015.8 |
| 20260508095538 | 61 | 86 | 6.0 | 13.0 | 0.00 | 0.00 | 0.00 | 68 | 1015.8 |
| 20260508095038 | 61 | 159 | 7.0 | 13.0 | 0.00 | 0.00 | 0.00 | 66 | 1015.9 |
| 20260508094548 | 61 | 94 | 7.0 | 13.0 | 0.00 | 0.00 | 0.00 | 67 | 1015.8 |
| 20260508094037 | 62 | 81 | 6.0 | 13.0 | 0.00 | 0.00 | 0.00 | 67 | 1015.7 |
| 20260508093539 | 61 | 113 | 6.0 | 12.0 | 0.00 | 0.00 | 0.00 | 69 | 1015.7 |
| 20260508093047 | 61 | 129 | 5.0 | 12.0 | 0.00 | 0.00 | 0.00 | 69 | 1015.8 |
| 20260508092537 | 61 | 116 | 7.0 | 12.0 | 0.00 | 0.00 | 0.00 | 68 | 1015.6 |
| 20260508092037 | 61 | 150 | 5.0 | 12.0 | 0.00 | 0.00 | 0.00 | 69 | 1015.7 |
| 20260508091551 | 61 | 144 | 4.0 | 12.0 | 0.00 | 0.00 | 0.00 | 71 | 1015.7 |
| 20260508091037 | 60 | 159 | 5.0 | 12.0 | 0.00 | 0.00 | 0.00 | 71 | 1015.8 |
| 20260508090536 | 60 | 126 | 6.0 | 13.0 | 0.00 | 0.00 | 0.00 | 71 | 1015.8 |
| 20260508090103 | 59 | 132 | 7.0 | 13.0 | 0.00 | 0.00 | 0.00 | 71 | 1015.8 |
| 20260508085537 | 60 | 140 | 5.0 | 12.0 | 0.00 | 0.00 | 0.00 | 72 | 1015.7 |
| 20260508085036 | 59 | 147 | 6.0 | 12.0 | 0.00 | 0.00 | 0.00 | 72 | 1015.7 |
| 20260508084543 | 59 | 136 | 6.0 | 12.0 | 0.00 | 0.00 | 0.00 | 72 | 1015.7 |
| 20260508084038 | 59 | 135 | 4.0 | 12.0 | 0.00 | 0.00 | 0.00 | 74 | 1015.7 |
| 20260508083537 | 59 | 88 | 6.0 | 15.0 | 0.00 | 0.00 | 0.00 | 73 | 1015.7 |
| 20260508083101 | 59 | 134 | 6.0 | 15.0 | 0.00 | 0.00 | 0.00 | 73 | 1015.6 |
| 20260508082539 | 59 | 117 | 5.0 | 14.0 | 0.00 | 0.00 | 0.00 | 73 | 1015.7 |
| 20260508082038 | 58 | 126 | 6.0 | 13.0 | 0.00 | 0.00 | 0.00 | 73 | 1015.6 |
| 20260508081557 | 58 | 146 | 5.0 | 15.0 | 0.00 | 0.00 | 0.00 | 75 | 1015.5 |
| 20260508081037 | 58 | 98 | 6.0 | 15.0 | 0.00 | 0.00 | 0.00 | 74 | 1015.4 |
| 20260508080537 | 59 | 152 | 7.0 | 15.0 | 0.00 | 0.00 | 0.00 | 72 | 1015.4 |
| 20260508075537 | 59 | 126 | 4.0 | 10.0 | 0.00 | 0.00 | 0.00 | 72 | 1015.4 |
| 20260508075038 | 59 | 157 | 2.0 | 11.0 | 0.00 | 0.00 | 0.00 | 74 | 1015.5 |
| 20260508074548 | 58 | 180 | 5.0 | 11.0 | 0.00 | 0.00 | 0.00 | 74 | 1015.4 |
| 20260508074039 | 59 | 111 | 4.0 | 9.0 | 0.00 | 0.00 | 0.00 | 74 | 1015.4 |
| 20260508073537 | 58 | 114 | 3.0 | 12.0 | 0.00 | 0.00 | 0.00 | 76 | 1015.3 |
| 20260508073050 | 58 | 130 | 4.0 | 12.0 | 0.00 | 0.00 | 0.00 | 77 | 1015.2 |
| 20260508072537 | 58 | 161 | 5.0 | 12.0 | 0.00 | 0.00 | 0.00 | 77 | 1015.3 |
| 20260508072037 | 57 | 129 | 6.0 | 12.0 | 0.00 | 0.00 | 0.00 | 78 | 1015.3 |
| 20260508071559 | 57 | 120 | 4.0 | 12.0 | 0.00 | 0.00 | 0.00 | 78 | 1015.2 |
| 20260508071037 | 57 | 123 | 5.0 | 11.0 | 0.00 | 0.00 | 0.00 | 79 | 1015.2 |
| 20260508070540 | 57 | 101 | 4.0 | 10.0 | 0.00 | 0.00 | 0.00 | 80 | 1015.2 |
| 20260508070139 | 56 | 105 | 3.0 | 10.0 | 0.00 | 0.00 | 0.00 | 82 | 1015.1 |
| 20260508065537 | 55 | 132 | 2.0 | 9.0 | 0.00 | 0.00 | 0.00 | 83 | 1015.1 |
| 20260508065041 | 55 | 149 | 3.0 | 9.0 | 0.00 | 0.00 | 0.00 | 83 | 1015.1 |
| 20260508064605 | 55 | 149 | 2.0 | 7.0 | 0.00 | 0.00 | 0.00 | 83 | 1015.1 |
| 20260508064037 | 54 | 118 | 2.0 | 9.0 | 0.00 | 0.00 | 0.00 | 84 | 1015.1 |
| 20260508063537 | 54 | 0 | 3.0 | 9.0 | 0.00 | 0.00 | 0.00 | 85 | 1015.0 |
| 20260508063050 | 53 | 121 | 1.0 | 6.0 | 0.00 | 0.00 | 0.00 | 86 | 1015.0 |
| 20260508062536 | 53 | 105 | 0.0 | 4.0 | 0.00 | 0.00 | 0.00 | 85 | 1015.1 |
| 20260508062037 | 53 | 0 | 0.0 | 4.0 | 0.00 | 0.00 | 0.00 | 86 | 1015.0 |
| 20260508061554 | 53 | 0 | 1.0 | 4.0 | 0.00 | 0.00 | 0.00 | 85 | 1015.0 |
| 20260508061037 | 53 | 0 | 0.0 | 2.0 | 0.00 | 0.00 | 0.00 | 85 | 1014.9 |
| 20260508060537 | 53 | 0 | 0.0 | 4.0 | 0.00 | 0.00 | 0.00 | 85 | 1014.8 |
| 20260508060045 | 53 | 59 | 1.0 | 5.0 | 0.00 | 0.00 | 0.00 | 85 | 1014.7 |
| 20260508055537 | 53 | 80 | 2.0 | 5.0 | 0.00 | 0.00 | 0.00 | 85 | 1014.7 |